Year,Month,Day,Hour,Minute,Value (Times are PST for temperature in C)
2008,04,27,00,00,9.80
2008,04,27,00,01,9.80
2008,04,27,00,02,9.80
2008,04,27,00,03,9.80
2008,04,27,00,04,9.80
2008,04,27,00,05,9.80
2008,04,27,00,06,9.80
2008,04,27,00,07,9.80
2008,04,27,00,08,9.80
2008,04,27,00,09,9.80
2008,04,27,00,10,9.70
2008,04,27,00,11,9.70
2008,04,27,00,12,9.70
2008,04,27,00,13,9.70
2008,04,27,00,14,9.60
2008,04,27,00,15,9.60
2008,04,27,00,16,9.60
2008,04,27,00,17,9.60
2008,04,27,00,18,9.60
2008,04,27,00,19,9.60
2008,04,27,00,20,9.60
2008,04,27,00,21,9.60
2008,04,27,00,22,9.60
2008,04,27,00,23,9.60
2008,04,27,00,24,9.60
2008,04,27,00,25,9.60
2008,04,27,00,26,9.60
2008,04,27,00,27,9.60
2008,04,27,00,28,9.60
2008,04,27,00,29,9.60
2008,04,27,00,30,9.60
2008,04,27,00,31,9.60
2008,04,27,00,32,9.60
2008,04,27,00,33,9.60
2008,04,27,00,34,9.60
2008,04,27,00,35,9.60
2008,04,27,00,36,9.60
2008,04,27,00,37,9.60
2008,04,27,00,38,9.60
2008,04,27,00,39,9.60
2008,04,27,00,40,9.60
2008,04,27,00,41,9.60
2008,04,27,00,42,9.60
2008,04,27,00,43,9.60
2008,04,27,00,44,9.60
2008,04,27,00,45,9.60
2008,04,27,00,46,9.60
2008,04,27,00,47,9.60
2008,04,27,00,48,9.60
2008,04,27,00,49,9.60
2008,04,27,00,50,9.60
2008,04,27,00,51,9.60
2008,04,27,00,52,9.60
2008,04,27,00,53,9.60
2008,04,27,00,54,9.50
2008,04,27,00,55,9.50
2008,04,27,00,56,9.50
2008,04,27,00,57,9.50
2008,04,27,00,58,9.40
2008,04,27,00,59,9.40
2008,04,27,01,00,9.40
2008,04,27,01,01,9.40
2008,04,27,01,02,9.30
2008,04,27,01,03,9.30
2008,04,27,01,04,9.30
2008,04,27,01,05,9.30
2008,04,27,01,06,9.30
2008,04,27,01,07,9.30
2008,04,27,01,08,9.30
2008,04,27,01,09,9.40
2008,04,27,01,10,9.40
2008,04,27,01,11,9.30
2008,04,27,01,12,9.30
2008,04,27,01,13,9.30
2008,04,27,01,14,9.30
2008,04,27,01,15,9.30
2008,04,27,01,16,9.30
2008,04,27,01,17,9.30
2008,04,27,01,18,9.30
2008,04,27,01,19,9.30
2008,04,27,01,20,9.30
2008,04,27,01,21,9.30
2008,04,27,01,22,9.30
2008,04,27,01,23,9.30
2008,04,27,01,24,9.30
2008,04,27,01,25,9.20
2008,04,27,01,26,9.20
2008,04,27,01,27,9.20
2008,04,27,01,28,9.20
2008,04,27,01,29,9.20
2008,04,27,01,30,9.10
2008,04,27,01,31,9.10
2008,04,27,01,32,9.10
2008,04,27,01,33,9.10
2008,04,27,01,34,9.10
2008,04,27,01,35,9.10
2008,04,27,01,36,9.10
2008,04,27,01,37,9.10
2008,04,27,01,38,9.10
2008,04,27,01,39,9.10
2008,04,27,01,40,9.10
2008,04,27,01,41,9.10
2008,04,27,01,42,9.10
2008,04,27,01,43,9.10
2008,04,27,01,44,9.10
2008,04,27,01,45,9.10
2008,04,27,01,46,9.10
2008,04,27,01,47,9.10
2008,04,27,01,48,9.10
2008,04,27,01,49,9.10
2008,04,27,01,50,9.10
2008,04,27,01,51,9.10
2008,04,27,01,52,9.10
2008,04,27,01,53,9.10
2008,04,27,01,54,9.10
2008,04,27,01,55,9.10
2008,04,27,01,56,9.10
2008,04,27,01,57,9.10
2008,04,27,01,58,9.10
2008,04,27,01,59,9.10
2008,04,27,02,00,9.10
2008,04,27,02,01,9.10
2008,04,27,02,02,9.10
2008,04,27,02,03,9.10
2008,04,27,02,04,9.10
2008,04,27,02,05,9.10
2008,04,27,02,06,9.10
2008,04,27,02,07,9.10
2008,04,27,02,08,9.00
2008,04,27,02,09,9.00
2008,04,27,02,10,9.00
2008,04,27,02,11,9.00
2008,04,27,02,12,8.90
2008,04,27,02,13,8.90
2008,04,27,02,14,8.90
2008,04,27,02,15,8.80
2008,04,27,02,16,8.80
2008,04,27,02,17,8.70
2008,04,27,02,18,8.70
2008,04,27,02,19,8.60
2008,04,27,02,20,8.60
2008,04,27,02,21,8.50
2008,04,27,02,22,8.50
2008,04,27,02,23,8.40
2008,04,27,02,24,8.40
2008,04,27,02,25,8.40
2008,04,27,02,26,8.30
2008,04,27,02,27,8.30
2008,04,27,02,28,8.30
2008,04,27,02,29,8.30
2008,04,27,02,30,8.30
2008,04,27,02,31,8.40
2008,04,27,02,32,8.40
2008,04,27,02,33,8.40
2008,04,27,02,34,8.40
2008,04,27,02,35,8.40
2008,04,27,02,36,8.50
2008,04,27,02,37,8.50
2008,04,27,02,38,8.50
2008,04,27,02,39,8.60
2008,04,27,02,40,8.60
2008,04,27,02,41,8.60
2008,04,27,02,42,8.60
2008,04,27,02,43,8.60
2008,04,27,02,44,8.60
2008,04,27,02,45,8.60
2008,04,27,02,46,8.60
2008,04,27,02,47,8.60
2008,04,27,02,48,8.60
2008,04,27,02,49,8.60
2008,04,27,02,50,8.60
2008,04,27,02,51,8.60
2008,04,27,02,52,8.60
2008,04,27,02,53,8.70
2008,04,27,02,54,8.70
2008,04,27,02,55,8.70
2008,04,27,02,56,8.70
2008,04,27,02,57,8.70
2008,04,27,02,58,8.70
2008,04,27,02,59,8.70
2008,04,27,03,00,8.80
2008,04,27,03,01,8.80
2008,04,27,03,02,8.90
2008,04,27,03,03,8.90
2008,04,27,03,04,8.90
2008,04,27,03,05,9.00
2008,04,27,03,06,9.00
2008,04,27,03,07,9.10
2008,04,27,03,08,9.10
2008,04,27,03,09,9.10
2008,04,27,03,10,9.10
2008,04,27,03,11,9.20
2008,04,27,03,12,9.20
2008,04,27,03,13,9.20
2008,04,27,03,14,9.10
2008,04,27,03,15,9.20
2008,04,27,03,16,9.10
2008,04,27,03,17,9.10
2008,04,27,03,18,9.10
2008,04,27,03,19,9.10
2008,04,27,03,20,9.10
2008,04,27,03,21,9.10
2008,04,27,03,22,9.00
2008,04,27,03,23,9.00
2008,04,27,03,24,8.90
2008,04,27,03,25,8.90
2008,04,27,03,26,8.80
2008,04,27,03,27,8.80
2008,04,27,03,28,8.70
2008,04,27,03,29,8.70
2008,04,27,03,30,8.60
2008,04,27,03,31,8.60
2008,04,27,03,32,8.50
2008,04,27,03,33,8.40
2008,04,27,03,34,8.40
2008,04,27,03,35,8.30
2008,04,27,03,36,8.30
2008,04,27,03,37,8.20
2008,04,27,03,38,8.20
2008,04,27,03,39,8.20
2008,04,27,03,40,8.20
2008,04,27,03,41,8.10
2008,04,27,03,42,8.10
2008,04,27,03,43,8.10
2008,04,27,03,44,8.10
2008,04,27,03,45,8.10
2008,04,27,03,46,8.10
2008,04,27,03,47,8.10
2008,04,27,03,48,8.10
2008,04,27,03,49,8.10
2008,04,27,03,50,8.10
2008,04,27,03,51,8.10
2008,04,27,03,52,8.10
2008,04,27,03,53,8.10
2008,04,27,03,54,8.10
2008,04,27,03,55,8.10
2008,04,27,03,56,8.10
2008,04,27,03,57,8.10
2008,04,27,03,58,8.10
2008,04,27,03,59,8.00
2008,04,27,04,00,8.00
2008,04,27,04,01,8.00
2008,04,27,04,02,8.00
2008,04,27,04,03,8.00
2008,04,27,04,04,8.00
2008,04,27,04,05,8.10
2008,04,27,04,06,8.10
2008,04,27,04,07,8.10
2008,04,27,04,08,8.10
2008,04,27,04,09,8.10
2008,04,27,04,10,8.20
2008,04,27,04,11,8.20
2008,04,27,04,12,8.20
2008,04,27,04,13,8.20
2008,04,27,04,14,8.20
2008,04,27,04,15,8.20
2008,04,27,04,16,8.30
2008,04,27,04,17,8.30
2008,04,27,04,18,8.30
2008,04,27,04,19,8.30
2008,04,27,04,20,8.30
2008,04,27,04,21,8.30
2008,04,27,04,22,8.30
2008,04,27,04,23,8.30
2008,04,27,04,24,8.30
2008,04,27,04,25,8.30
2008,04,27,04,26,8.40
2008,04,27,04,27,8.40
2008,04,27,04,28,8.40
2008,04,27,04,29,8.50
2008,04,27,04,30,8.40
2008,04,27,04,31,8.40
2008,04,27,04,32,8.40
2008,04,27,04,33,8.40
2008,04,27,04,34,8.40
2008,04,27,04,35,8.40
2008,04,27,04,36,8.50
2008,04,27,04,37,8.60
2008,04,27,04,38,8.60
2008,04,27,04,39,8.60
2008,04,27,04,40,8.60
2008,04,27,04,41,8.60
2008,04,27,04,42,8.60
2008,04,27,04,43,8.60
2008,04,27,04,44,8.60
2008,04,27,04,45,8.60
2008,04,27,04,46,8.60
2008,04,27,04,47,8.60
2008,04,27,04,48,8.60
2008,04,27,04,49,8.60
2008,04,27,04,50,8.60
2008,04,27,04,51,8.60
2008,04,27,04,52,8.60
2008,04,27,04,53,8.60
2008,04,27,04,54,8.60
2008,04,27,04,55,8.60
2008,04,27,04,56,8.60
2008,04,27,04,57,8.50
2008,04,27,04,58,8.50
2008,04,27,04,59,8.50
2008,04,27,05,00,8.50
2008,04,27,05,01,8.50
2008,04,27,05,02,8.50
2008,04,27,05,03,8.50
2008,04,27,05,04,8.40
2008,04,27,05,05,8.40
2008,04,27,05,06,8.40
2008,04,27,05,07,8.30
2008,04,27,05,08,8.30
2008,04,27,05,09,8.30
2008,04,27,05,10,8.30
2008,04,27,05,11,8.40
2008,04,27,05,12,8.40
2008,04,27,05,13,8.40
2008,04,27,05,14,8.40
2008,04,27,05,15,8.40
2008,04,27,05,16,8.40
2008,04,27,05,17,8.40
2008,04,27,05,18,8.30
2008,04,27,05,19,8.30
2008,04,27,05,20,8.20
2008,04,27,05,21,8.20
2008,04,27,05,22,8.20
2008,04,27,05,23,8.20
2008,04,27,05,24,8.20
2008,04,27,05,25,8.20
2008,04,27,05,26,8.30
2008,04,27,05,27,8.30
2008,04,27,05,28,8.40
2008,04,27,05,29,8.40
2008,04,27,05,30,8.50
2008,04,27,05,31,8.50
2008,04,27,05,32,8.60
2008,04,27,05,33,8.60
2008,04,27,05,34,8.60
2008,04,27,05,35,8.60
2008,04,27,05,36,8.60
2008,04,27,05,37,8.60
2008,04,27,05,38,8.60
2008,04,27,05,39,8.60
2008,04,27,05,40,8.60
2008,04,27,05,41,8.60
2008,04,27,05,42,8.60
2008,04,27,05,43,8.60
2008,04,27,05,44,8.70
2008,04,27,05,45,8.70
2008,04,27,05,46,8.70
2008,04,27,05,47,8.70
2008,04,27,05,48,8.60
2008,04,27,05,49,8.60
2008,04,27,05,50,8.60
2008,04,27,05,51,8.50
2008,04,27,05,52,8.40
2008,04,27,05,53,8.40
2008,04,27,05,54,8.30
2008,04,27,05,55,8.30
2008,04,27,05,56,8.30
2008,04,27,05,57,8.30
2008,04,27,05,58,8.30
2008,04,27,05,59,8.30
2008,04,27,06,00,8.30
2008,04,27,06,01,8.40
2008,04,27,06,02,8.40
2008,04,27,06,03,8.50
2008,04,27,06,04,8.60
2008,04,27,06,05,8.60
2008,04,27,06,06,8.70
2008,04,27,06,07,8.70
2008,04,27,06,08,8.70
2008,04,27,06,09,8.70
2008,04,27,06,10,8.70
2008,04,27,06,11,8.70
2008,04,27,06,12,8.70
2008,04,27,06,13,8.70
2008,04,27,06,14,8.70
2008,04,27,06,15,8.70
2008,04,27,06,16,8.70
2008,04,27,06,17,8.60
2008,04,27,06,18,8.60
2008,04,27,06,19,8.60
2008,04,27,06,20,8.60
2008,04,27,06,21,8.60
2008,04,27,06,22,8.50
2008,04,27,06,23,8.50
2008,04,27,06,24,8.50
2008,04,27,06,25,8.50
2008,04,27,06,26,8.50
2008,04,27,06,27,8.50
2008,04,27,06,28,8.50
2008,04,27,06,29,8.50
2008,04,27,06,30,8.60
2008,04,27,06,31,8.60
2008,04,27,06,32,8.60
2008,04,27,06,33,8.60
2008,04,27,06,34,8.60
2008,04,27,06,35,8.60
2008,04,27,06,36,8.60
2008,04,27,06,37,8.60
2008,04,27,06,38,8.60
2008,04,27,06,39,8.70
2008,04,27,06,40,8.70
2008,04,27,06,41,8.70
2008,04,27,06,42,8.60
2008,04,27,06,43,8.60
2008,04,27,06,44,8.60
2008,04,27,06,45,8.60
2008,04,27,06,46,8.60
2008,04,27,06,47,8.60
2008,04,27,06,48,8.60
2008,04,27,06,49,8.60
2008,04,27,06,50,8.60
2008,04,27,06,51,8.60
2008,04,27,06,52,8.60
2008,04,27,06,53,8.70
2008,04,27,06,54,8.70
2008,04,27,06,55,8.70
2008,04,27,06,56,8.70
2008,04,27,06,57,8.70
2008,04,27,06,58,8.70
2008,04,27,06,59,8.60
2008,04,27,07,00,8.60
2008,04,27,07,01,8.60
2008,04,27,07,02,8.60
2008,04,27,07,03,8.60
2008,04,27,07,04,8.60
2008,04,27,07,05,8.60
2008,04,27,07,06,8.50
2008,04,27,07,07,8.50
2008,04,27,07,08,8.50
2008,04,27,07,09,8.50
2008,04,27,07,10,8.40
2008,04,27,07,11,8.40
2008,04,27,07,12,8.40
2008,04,27,07,13,8.40
2008,04,27,07,14,8.40
2008,04,27,07,15,8.40
2008,04,27,07,16,8.40
2008,04,27,07,17,8.40
2008,04,27,07,18,8.40
2008,04,27,07,19,8.50
2008,04,27,07,20,8.50
2008,04,27,07,21,8.50
2008,04,27,07,22,8.50
2008,04,27,07,23,8.50
2008,04,27,07,24,8.50
2008,04,27,07,25,8.50
2008,04,27,07,26,8.50
2008,04,27,07,27,8.50
2008,04,27,07,28,8.60
2008,04,27,07,29,8.60
2008,04,27,07,30,8.60
2008,04,27,07,31,8.60
2008,04,27,07,32,8.60
2008,04,27,07,33,8.60
2008,04,27,07,34,8.60
2008,04,27,07,35,8.60
2008,04,27,07,36,8.60
2008,04,27,07,37,8.70
2008,04,27,07,38,8.70
2008,04,27,07,39,8.70
2008,04,27,07,40,8.70
2008,04,27,07,41,8.70
2008,04,27,07,42,8.70
2008,04,27,07,43,8.70
2008,04,27,07,44,8.70
2008,04,27,07,45,8.70
2008,04,27,07,46,8.80
2008,04,27,07,47,8.80
2008,04,27,07,48,8.80
2008,04,27,07,49,8.80
2008,04,27,07,50,8.80
2008,04,27,07,51,8.80
2008,04,27,07,52,8.80
2008,04,27,07,53,8.80
2008,04,27,07,54,8.80
2008,04,27,07,55,8.80
2008,04,27,07,56,8.80
2008,04,27,07,57,8.80
2008,04,27,07,58,8.80
2008,04,27,07,59,8.80
2008,04,27,08,00,8.80
2008,04,27,08,01,8.90
2008,04,27,08,02,8.90
2008,04,27,08,03,8.90
2008,04,27,08,04,8.90
2008,04,27,08,05,8.90
2008,04,27,08,06,9.00
2008,04,27,08,07,9.00
2008,04,27,08,08,9.00
2008,04,27,08,09,9.00
2008,04,27,08,10,9.10
2008,04,27,08,11,9.10
2008,04,27,08,12,9.10
2008,04,27,08,13,9.10
2008,04,27,08,14,9.20
2008,04,27,08,15,9.20
2008,04,27,08,16,9.20
2008,04,27,08,17,9.30
2008,04,27,08,18,9.30
2008,04,27,08,19,9.30
2008,04,27,08,20,9.40
2008,04,27,08,21,9.40
2008,04,27,08,22,9.50
2008,04,27,08,23,9.50
2008,04,27,08,24,9.60
2008,04,27,08,25,9.60
2008,04,27,08,26,9.60
2008,04,27,08,27,9.60
2008,04,27,08,28,9.70
2008,04,27,08,29,9.70
2008,04,27,08,30,9.70
2008,04,27,08,31,9.80
2008,04,27,08,32,9.80
2008,04,27,08,33,9.80
2008,04,27,08,34,9.80
2008,04,27,08,35,9.90
2008,04,27,08,36,9.90
2008,04,27,08,37,9.90
2008,04,27,08,38,9.90
2008,04,27,08,39,10.00
2008,04,27,08,40,10.00
2008,04,27,08,41,10.00
2008,04,27,08,42,10.00
2008,04,27,08,43,10.10
2008,04,27,08,44,10.10
2008,04,27,08,45,10.10
2008,04,27,08,46,10.10
2008,04,27,08,47,10.20
2008,04,27,08,48,10.20
2008,04,27,08,49,10.30
2008,04,27,08,50,10.30
2008,04,27,08,51,10.30
2008,04,27,08,52,10.30
2008,04,27,08,53,10.30
2008,04,27,08,54,10.30
2008,04,27,08,55,10.40
2008,04,27,08,56,10.40
2008,04,27,08,57,10.40
2008,04,27,08,58,10.40
2008,04,27,08,59,10.50
2008,04,27,09,00,10.50
2008,04,27,09,01,10.60
2008,04,27,09,02,10.60
2008,04,27,09,03,10.70
2008,04,27,09,04,10.70
2008,04,27,09,05,10.80
2008,04,27,09,06,10.80
2008,04,27,09,07,10.80
2008,04,27,09,08,10.90
2008,04,27,09,09,10.90
2008,04,27,09,10,10.90
2008,04,27,09,11,10.90
2008,04,27,09,12,10.90
2008,04,27,09,13,11.00
2008,04,27,09,14,11.00
2008,04,27,09,15,11.10
2008,04,27,09,16,11.10
2008,04,27,09,17,11.10
2008,04,27,09,18,11.10
2008,04,27,09,19,11.10
2008,04,27,09,20,11.10
2008,04,27,09,21,11.10
2008,04,27,09,22,11.10
2008,04,27,09,23,11.10
2008,04,27,09,24,11.10
2008,04,27,09,25,11.00
2008,04,27,09,26,11.00
2008,04,27,09,27,10.90
2008,04,27,09,28,10.90
2008,04,27,09,29,10.90
2008,04,27,09,30,10.90
2008,04,27,09,31,10.90
2008,04,27,09,32,10.90
2008,04,27,09,33,10.90
2008,04,27,09,34,11.00
2008,04,27,09,35,11.00
2008,04,27,09,36,11.00
2008,04,27,09,37,11.00
2008,04,27,09,38,11.00
2008,04,27,09,39,11.00
2008,04,27,09,40,11.00
2008,04,27,09,41,11.00
2008,04,27,09,42,11.00
2008,04,27,09,43,10.90
2008,04,27,09,44,10.90
2008,04,27,09,45,10.90
2008,04,27,09,46,10.90
2008,04,27,09,47,10.90
2008,04,27,09,48,10.80
2008,04,27,09,49,10.80
2008,04,27,09,50,10.80
2008,04,27,09,51,10.80
2008,04,27,09,52,10.80
2008,04,27,09,53,10.80
2008,04,27,09,54,10.80
2008,04,27,09,55,10.80
2008,04,27,09,56,10.90
2008,04,27,09,57,10.90
2008,04,27,09,58,10.90
2008,04,27,09,59,10.90
2008,04,27,10,00,11.00
2008,04,27,10,01,11.00
2008,04,27,10,02,11.10
2008,04,27,10,03,11.10
2008,04,27,10,04,11.20
2008,04,27,10,05,11.20
2008,04,27,10,06,11.20
2008,04,27,10,07,11.30
2008,04,27,10,08,11.30
2008,04,27,10,09,11.30
2008,04,27,10,10,11.40
2008,04,27,10,11,11.40
2008,04,27,10,12,11.40
2008,04,27,10,13,11.40
2008,04,27,10,14,11.50
2008,04,27,10,15,11.60
2008,04,27,10,16,11.60
2008,04,27,10,17,11.60
2008,04,27,10,18,11.60
2008,04,27,10,19,11.70
2008,04,27,10,20,11.70
2008,04,27,10,21,11.70
2008,04,27,10,22,11.70
2008,04,27,10,23,11.70
2008,04,27,10,24,11.70
2008,04,27,10,25,11.70
2008,04,27,10,26,11.70
2008,04,27,10,27,11.70
2008,04,27,10,28,11.70
2008,04,27,10,29,11.70
2008,04,27,10,30,11.60
2008,04,27,10,31,11.60
2008,04,27,10,32,11.60
2008,04,27,10,33,11.50
2008,04,27,10,34,11.40
2008,04,27,10,35,11.30
2008,04,27,10,36,11.10
2008,04,27,10,37,10.90
2008,04,27,10,38,10.70
2008,04,27,10,39,10.50
2008,04,27,10,40,10.40
2008,04,27,10,41,10.30
2008,04,27,10,42,10.30
2008,04,27,10,43,10.20
2008,04,27,10,44,10.10
2008,04,27,10,45,10.00
2008,04,27,10,46,9.90
2008,04,27,10,47,9.80
2008,04,27,10,48,9.80
2008,04,27,10,49,9.80
2008,04,27,10,50,9.80
2008,04,27,10,51,9.70
2008,04,27,10,52,9.70
2008,04,27,10,53,9.70
2008,04,27,10,54,9.70
2008,04,27,10,55,9.70
2008,04,27,10,56,9.60
2008,04,27,10,57,9.60
2008,04,27,10,58,9.50
2008,04,27,10,59,9.40
2008,04,27,11,00,9.40
2008,04,27,11,01,9.30
2008,04,27,11,02,9.30
2008,04,27,11,03,9.30
2008,04,27,11,04,9.30
2008,04,27,11,05,9.30
2008,04,27,11,06,9.30
2008,04,27,11,07,9.30
2008,04,27,11,08,9.30
2008,04,27,11,09,9.30
2008,04,27,11,10,9.30
2008,04,27,11,11,9.30
2008,04,27,11,12,9.30
2008,04,27,11,13,9.40
2008,04,27,11,14,9.40
2008,04,27,11,15,9.40
2008,04,27,11,16,9.40
2008,04,27,11,17,9.40
2008,04,27,11,18,9.50
2008,04,27,11,19,9.50
2008,04,27,11,20,9.50
2008,04,27,11,21,9.50
2008,04,27,11,22,9.60
2008,04,27,11,23,9.60
2008,04,27,11,24,9.60
2008,04,27,11,25,9.60
2008,04,27,11,26,9.70
2008,04,27,11,27,9.70
2008,04,27,11,28,9.70
2008,04,27,11,29,9.70
2008,04,27,11,30,9.70
2008,04,27,11,31,9.60
2008,04,27,11,32,9.60
2008,04,27,11,33,9.60
2008,04,27,11,34,9.60
2008,04,27,11,35,9.60
2008,04,27,11,36,9.60
2008,04,27,11,37,9.60
2008,04,27,11,38,9.60
2008,04,27,11,39,9.70
2008,04,27,11,40,9.70
2008,04,27,11,41,9.80
2008,04,27,11,42,9.80
2008,04,27,11,43,9.90
2008,04,27,11,44,9.90
2008,04,27,11,45,9.90
2008,04,27,11,46,10.00
2008,04,27,11,47,10.00
2008,04,27,11,48,10.00
2008,04,27,11,49,10.10
2008,04,27,11,50,10.10
2008,04,27,11,51,10.20
2008,04,27,11,52,10.20
2008,04,27,11,53,10.20
2008,04,27,11,54,10.20
2008,04,27,11,55,10.20
2008,04,27,11,56,10.10
2008,04,27,11,57,10.10
2008,04,27,11,58,10.10
2008,04,27,11,59,10.00
2008,04,27,12,00,10.00
2008,04,27,12,01,9.90
2008,04,27,12,02,9.90
2008,04,27,12,03,9.90
2008,04,27,12,04,9.90
2008,04,27,12,05,9.90
2008,04,27,12,06,9.90
2008,04,27,12,07,10.00
2008,04,27,12,08,10.00
2008,04,27,12,09,10.00
2008,04,27,12,10,10.00
2008,04,27,12,11,10.10
2008,04,27,12,12,10.10
2008,04,27,12,13,10.10
2008,04,27,12,14,10.20
2008,04,27,12,15,10.20
2008,04,27,12,16,10.20
2008,04,27,12,17,10.30
2008,04,27,12,18,10.30
2008,04,27,12,19,10.30
2008,04,27,12,20,10.30
2008,04,27,12,21,10.30
2008,04,27,12,22,10.30
2008,04,27,12,23,10.30
2008,04,27,12,24,10.30
2008,04,27,12,25,10.30
2008,04,27,12,26,10.30
2008,04,27,12,27,10.30
2008,04,27,12,28,10.30
2008,04,27,12,29,10.30
2008,04,27,12,30,10.20
2008,04,27,12,31,10.20
2008,04,27,12,32,10.20
2008,04,27,12,33,10.10
2008,04,27,12,34,10.10
2008,04,27,12,35,10.10
2008,04,27,12,36,10.00
2008,04,27,12,37,10.00
2008,04,27,12,38,9.90
2008,04,27,12,39,9.90
2008,04,27,12,40,9.90
2008,04,27,12,41,9.90
2008,04,27,12,42,9.90
2008,04,27,12,43,9.90
2008,04,27,12,44,9.90
2008,04,27,12,45,9.90
2008,04,27,12,46,9.90
2008,04,27,12,47,10.00
2008,04,27,12,48,10.10
2008,04,27,12,49,10.10
2008,04,27,12,50,10.10
2008,04,27,12,51,10.20
2008,04,27,12,52,10.20
2008,04,27,12,53,10.20
2008,04,27,12,54,10.20
2008,04,27,12,55,10.20
2008,04,27,12,56,10.20
2008,04,27,12,57,10.30
2008,04,27,12,58,10.30
2008,04,27,12,59,10.30
2008,04,27,13,00,10.30
2008,04,27,13,01,10.40
2008,04,27,13,02,10.40
2008,04,27,13,03,10.50
2008,04,27,13,04,10.50
2008,04,27,13,05,10.60
2008,04,27,13,06,10.60
2008,04,27,13,07,10.60
2008,04,27,13,08,10.60
2008,04,27,13,09,10.70
2008,04,27,13,10,10.70
2008,04,27,13,11,10.70
2008,04,27,13,12,10.70
2008,04,27,13,13,10.60
2008,04,27,13,14,10.50
2008,04,27,13,15,10.40
2008,04,27,13,16,10.30
2008,04,27,13,17,10.20
2008,04,27,13,18,10.20
2008,04,27,13,19,10.10
2008,04,27,13,20,10.00
2008,04,27,13,21,9.90
2008,04,27,13,22,9.90
2008,04,27,13,23,9.90
2008,04,27,13,24,9.90
2008,04,27,13,25,9.90
2008,04,27,13,26,9.90
2008,04,27,13,27,9.90
2008,04,27,13,28,9.90
2008,04,27,13,29,10.00
2008,04,27,13,30,10.10
2008,04,27,13,31,10.10
2008,04,27,13,32,10.10
2008,04,27,13,33,10.10
2008,04,27,13,34,10.10
2008,04,27,13,35,10.10
2008,04,27,13,36,10.10
2008,04,27,13,37,10.10
2008,04,27,13,38,10.00
2008,04,27,13,39,10.00
2008,04,27,13,40,10.00
2008,04,27,13,41,10.00
2008,04,27,13,42,10.00
2008,04,27,13,43,10.00
2008,04,27,13,44,10.00
2008,04,27,13,45,10.10
2008,04,27,13,46,10.10
2008,04,27,13,47,10.10
2008,04,27,13,48,10.10
2008,04,27,13,49,10.20
2008,04,27,13,50,10.20
2008,04,27,13,51,10.20
2008,04,27,13,52,10.30
2008,04,27,13,53,10.40
2008,04,27,13,54,10.40
2008,04,27,13,55,10.50
2008,04,27,13,56,10.50
2008,04,27,13,57,10.60
2008,04,27,13,58,10.60
2008,04,27,13,59,10.70
2008,04,27,14,00,10.70
2008,04,27,14,01,10.70
2008,04,27,14,02,10.70
2008,04,27,14,03,10.80
2008,04,27,14,04,10.80
2008,04,27,14,05,10.90
2008,04,27,14,06,11.00
2008,04,27,14,07,11.10
2008,04,27,14,08,11.10
2008,04,27,14,09,11.10
2008,04,27,14,10,11.20
2008,04,27,14,11,11.30
2008,04,27,14,12,11.30
2008,04,27,14,13,11.40
2008,04,27,14,14,11.40
2008,04,27,14,15,11.40
2008,04,27,14,16,11.50
2008,04,27,14,17,11.50
2008,04,27,14,18,11.60
2008,04,27,14,19,11.60
2008,04,27,14,20,11.70
2008,04,27,14,21,11.70
2008,04,27,14,22,11.70
2008,04,27,14,23,11.80
2008,04,27,14,24,11.90
2008,04,27,14,25,11.90
2008,04,27,14,26,12.00
2008,04,27,14,27,12.10
2008,04,27,14,28,12.20
2008,04,27,14,29,12.30
2008,04,27,14,30,12.30
2008,04,27,14,31,12.40
2008,04,27,14,32,12.50
2008,04,27,14,33,12.50
2008,04,27,14,34,12.50
2008,04,27,14,35,12.40
2008,04,27,14,36,12.40
2008,04,27,14,37,12.40
2008,04,27,14,38,12.40
2008,04,27,14,39,12.40
2008,04,27,14,40,12.40
2008,04,27,14,41,12.40
2008,04,27,14,42,12.40
2008,04,27,14,43,12.40
2008,04,27,14,44,12.40
2008,04,27,14,45,12.40
2008,04,27,14,46,12.40
2008,04,27,14,47,12.40
2008,04,27,14,48,12.40
2008,04,27,14,49,12.40
2008,04,27,14,50,12.40
2008,04,27,14,51,12.50
2008,04,27,14,52,12.60
2008,04,27,14,53,12.60
2008,04,27,14,54,12.70
2008,04,27,14,55,12.70
2008,04,27,14,56,12.60
2008,04,27,14,57,12.60
2008,04,27,14,58,12.60
2008,04,27,14,59,12.60
2008,04,27,15,00,12.60
2008,04,27,15,01,12.60
2008,04,27,15,02,12.50
2008,04,27,15,03,12.50
2008,04,27,15,04,12.40
2008,04,27,15,05,12.40
2008,04,27,15,06,12.40
2008,04,27,15,07,12.40
2008,04,27,15,08,12.30
2008,04,27,15,09,12.30
2008,04,27,15,10,12.20
2008,04,27,15,11,11.90
2008,04,27,15,12,11.70
2008,04,27,15,13,11.50
2008,04,27,15,14,11.40
2008,04,27,15,15,11.40
2008,04,27,15,16,11.40
2008,04,27,15,17,11.30
2008,04,27,15,18,11.30
2008,04,27,15,19,11.30
2008,04,27,15,20,11.30
2008,04,27,15,21,11.30
2008,04,27,15,22,11.30
2008,04,27,15,23,11.30
2008,04,27,15,24,11.30
2008,04,27,15,25,11.30
2008,04,27,15,26,11.40
2008,04,27,15,27,11.40
2008,04,27,15,28,11.30
2008,04,27,15,29,11.30
2008,04,27,15,30,11.30
2008,04,27,15,31,11.20
2008,04,27,15,32,11.20
2008,04,27,15,33,11.20
2008,04,27,15,34,11.20
2008,04,27,15,35,11.30
2008,04,27,15,36,11.40
2008,04,27,15,37,11.50
2008,04,27,15,38,11.60
2008,04,27,15,39,11.60
2008,04,27,15,40,11.60
2008,04,27,15,41,11.70
2008,04,27,15,42,11.70
2008,04,27,15,43,11.70
2008,04,27,15,44,11.70
2008,04,27,15,45,11.70
2008,04,27,15,46,11.80
2008,04,27,15,47,11.90
2008,04,27,15,48,11.90
2008,04,27,15,49,12.00
2008,04,27,15,50,12.10
2008,04,27,15,51,12.20
2008,04,27,15,52,12.20
2008,04,27,15,53,12.20
2008,04,27,15,54,12.20
2008,04,27,15,55,12.20
2008,04,27,15,56,12.20
2008,04,27,15,57,12.20
2008,04,27,15,58,12.20
2008,04,27,15,59,12.20
2008,04,27,16,00,12.20
2008,04,27,16,01,12.20
2008,04,27,16,02,12.30
2008,04,27,16,03,12.30
2008,04,27,16,04,12.30
2008,04,27,16,05,12.40
2008,04,27,16,06,12.40
2008,04,27,16,07,12.50
2008,04,27,16,08,12.50
2008,04,27,16,09,12.50
2008,04,27,16,10,12.60
2008,04,27,16,11,12.60
2008,04,27,16,12,12.60
2008,04,27,16,13,12.60
2008,04,27,16,14,12.60
2008,04,27,16,15,12.60
2008,04,27,16,16,12.60
2008,04,27,16,17,12.60
2008,04,27,16,18,12.60
2008,04,27,16,19,12.60
2008,04,27,16,20,12.70
2008,04,27,16,21,12.70
2008,04,27,16,22,12.70
2008,04,27,16,23,12.70
2008,04,27,16,24,12.70
2008,04,27,16,25,12.70
2008,04,27,16,26,12.70
2008,04,27,16,27,12.70
2008,04,27,16,28,12.70
2008,04,27,16,29,12.70
2008,04,27,16,30,12.70
2008,04,27,16,31,12.70
2008,04,27,16,32,12.70
2008,04,27,16,33,12.70
2008,04,27,16,34,12.70
2008,04,27,16,35,12.60
2008,04,27,16,36,12.60
2008,04,27,16,37,12.60
2008,04,27,16,38,12.50
2008,04,27,16,39,12.40
2008,04,27,16,40,12.40
2008,04,27,16,41,12.30
2008,04,27,16,42,12.20
2008,04,27,16,43,12.10
2008,04,27,16,44,12.10
2008,04,27,16,45,12.00
2008,04,27,16,46,11.90
2008,04,27,16,47,11.80
2008,04,27,16,48,11.80
2008,04,27,16,49,11.70
2008,04,27,16,50,11.70
2008,04,27,16,51,11.70
2008,04,27,16,52,11.70
2008,04,27,16,53,11.70
2008,04,27,16,54,11.70
2008,04,27,16,55,11.70
2008,04,27,16,56,11.70
2008,04,27,16,57,11.60
2008,04,27,16,58,11.60
2008,04,27,16,59,11.60
2008,04,27,17,00,11.50
2008,04,27,17,01,11.50
2008,04,27,17,02,11.50
2008,04,27,17,03,11.60
2008,04,27,17,04,11.60
2008,04,27,17,05,11.60
2008,04,27,17,06,11.60
2008,04,27,17,07,11.60
2008,04,27,17,08,11.60
2008,04,27,17,09,11.60
2008,04,27,17,10,11.60
2008,04,27,17,11,11.60
2008,04,27,17,12,11.60
2008,04,27,17,13,11.60
2008,04,27,17,14,11.60
2008,04,27,17,15,11.60
2008,04,27,17,16,11.60
2008,04,27,17,17,11.50
2008,04,27,17,18,11.50
2008,04,27,17,19,11.50
2008,04,27,17,20,11.50
2008,04,27,17,21,11.50
2008,04,27,17,22,11.50
2008,04,27,17,23,11.50
2008,04,27,17,24,11.50
2008,04,27,17,25,11.50
2008,04,27,17,26,11.50
2008,04,27,17,27,11.50
2008,04,27,17,28,11.40
2008,04,27,17,29,11.40
2008,04,27,17,30,11.30
2008,04,27,17,31,11.30
2008,04,27,17,32,11.30
2008,04,27,17,33,11.20
2008,04,27,17,34,11.20
2008,04,27,17,35,11.20
2008,04,27,17,36,11.20
2008,04,27,17,37,11.20
2008,04,27,17,38,11.20
2008,04,27,17,39,11.20
2008,04,27,17,40,11.20
2008,04,27,17,41,11.20
2008,04,27,17,42,11.20
2008,04,27,17,43,11.20
2008,04,27,17,44,11.20
2008,04,27,17,45,11.20